Hourly Data Report for October 11, 2013

All times are specified in Local Standard Time (LST). Add 1 hour to adjust for Daylight Saving Time where and when it is observed.

KAMLOOPS A
BRITISH COLUMBIA

50°42'09.000" N
120°26'55.000" W
345.30 m
1163781
71887
YKA

Download Data

Hourly Data (October 2013)
Hourly Data Report for October 11, 2013
Temp Definition
°C
Dew Point Temp Definition
°C
Rel Hum Definition
%
Wind Dir Definition
10's deg

Wind Spd Definition
km/h
Visibility Definition
km
Stn Press Definition
kPa
Hmdx Definition


Wind Chill Definition


Weather Definition


TIME
00:00 Legend Double Dagger 3.5 -2.7 64 6 4 64.4 97.69     LegendNANA
01:00 Legend Double Dagger 3.4 -3.2 62 5 4 64.4 97.79     Clear
02:00 Legend Double Dagger 3.1 -2.8 65 8 3 64.4 97.86     LegendNANA
03:00 Legend Double Dagger 3.1 -2.0 69 9 4 64.4 97.91     LegendNANA
04:00 Legend Double Dagger 3.6 -2.0 67 9 9 64.4 97.90     Mostly Cloudy
05:00 Legend Double Dagger 3.6 -1.2 71 9 10 64.4 97.90     LegendNANA
06:00 Legend Double Dagger 3.3 -1.3 72 8 3 64.4 97.96     LegendNANA
07:00 Legend Double Dagger 3.7 -0.9 72 5 4 64.4 97.99     Mostly Cloudy
08:00 Legend Double Dagger 5.0 -1.0 65 10 7 64.4 98.04     LegendNANA
09:00 Legend Double Dagger 5.8 -0.9 62 10 8 64.4 98.03     LegendNANA
10:00 Legend Double Dagger 6.9 -0.8 58 14 2 64.4 98.00     Mostly Cloudy
11:00 Legend Double Dagger 8.7 -1.1 50 16 5 64.4 97.94     LegendNANA
12:00 Legend Double Dagger 9.1 -1.0 49 20 6 64.4 97.88     LegendNANA
13:00 Legend Double Dagger 10.4 -0.1 48 16 4 64.4 97.81     Cloudy
14:00 Legend Double Dagger 11.3 -0.2 45 10 7 64.4 97.76     LegendNANA
15:00 Legend Double Dagger 11.2 0.4 47 33 1 64.4 97.73     LegendNANA
16:00 Legend Double Dagger 11.3 0.4 47 30 5 64.4 97.72     Cloudy
17:00 Legend Double Dagger 10.2 1.6 55 28 4 64.4 97.70     LegendNANA
18:00 Legend Double Dagger 10.3 1.2 53 13 13 64.4 97.70     LegendNANA
19:00 Legend Double Dagger 9.8 1.2 55 11 7 64.4 97.71     Mostly Cloudy
20:00 Legend Double Dagger 9.1 1.5 59 8 13 64.4 97.72     LegendNANA
21:00 Legend Double Dagger 8.6 2.2 64 9 12 64.4 97.73     LegendNANA
22:00 Legend Double Dagger 8.2 2.5 67 8 10 64.4 97.77     Cloudy
23:00 Legend Double Dagger 5.6 1.0 72 28 7 64.4 97.76     LegendNANA

Notes on Data Quality.

Legend

  • E = Estimated
  • M = Missing
  • NA = Not Available
  • ‡ = Partner data that is not subject to review by the National Climate Archives
Date modified: